Saint Simons Island, GA

2:50 AM EST on November 21, 2019 (GMT -0500)
McKinnon

Weather History for KSSI - October, 2019

Change the Weather History Date:

Monday, October 21, 2019

  Actual Average Record
Temperature  
Mean Temperature 72 °F 69 °F  
Max Temperature 82 °F 77 °F 87 °F (1962)
Min Temperature 62 °F 61 °F 39 °F (1964)
Degree Days  
Heating Degree Days 0 1  
Month to date heating degree days 0 11  
Since 1 July heating degree days 0 11  
Cooling Degree Days 7 5  
Month to date cooling degree days 245 151  
Year to date cooling degree days 3232 2522  
Growing Degree Days 23 (Base 50)    
Moisture  
Dew Point 69 °F    
Average Humidity 80    
Maximum Humidity 94    
Minimum Humidity 65    
Precipitation  
Precipitation 1.07 in 0.13 in 3.28 in (1951)
Month to date precipitation 5.13 3.48  
Year to date precipitation 32.23 39.35  
Snow  
Snow 0.00 in - 0.00 in ()
Month to date snowfall 0.0  
Since 1 July snowfall 0.0  
Since 1 September snowfall 0.0  
Snow Depth 0.00 in    
Sea Level Pressure  
Sea Level Pressure 29.99 in    
Wind  
Wind Speed 6 mph (ESE)    
Max Wind Speed 13 mph    
Max Gust Speed 17 mph    
Visibility 9 miles    
Events Rain    
T = Trace of Precipitation, MM = Missing Value Source: NWS Daily Summary

Daily Weather History Graph

Daily Weather History Graph

Search for Another Location

Airport or City:

Astronomy

Oct. 21, 2019 Rise Set
Actual Time 7:32 AM EDT 6:47 PM EDT
Civil Twilight 7:07 AM EDT 7:12 PM EDT
Nautical Twilight 6:39 AM EDT 7:40 PM EDT
Astronomical Twilight 6:11 AM EDT 8:08 PM EDT
Moon 12:10 AM EDT 2:36 PM EDT
Length of Visible Light 12h 04m
Length of Day
11h 15m
Waning Gibbous, 48% of the Moon is Illuminated
Oct 21
Waning Gibbous
Oct 27
New
Nov 4
First Quarter
Nov 12
Full
Nov 19
Last Quarter

Hourly Weather History & Observations

Time (EDT) Temp. Heat Index Dew Point Humidity Pressure Visibility Wind Dir Wind Speed Gust Speed Precip Events Conditions
12:53 AM 66.0 °F - 62.1 °F 87% 29.99 in 10.0 mi Calm Calm - N/A   Clear
1:53 AM 64.9 °F - 62.1 °F 90% 29.99 in 10.0 mi Calm Calm - N/A   Clear
2:53 AM 64.0 °F - 61.0 °F 90% 29.99 in 10.0 mi Calm Calm - N/A   Clear
3:53 AM 64.0 °F - 61.0 °F 90% 29.98 in 10.0 mi North 3.5 mph - N/A   Clear
4:53 AM 64.9 °F - 61.0 °F 87% 29.99 in 10.0 mi Calm Calm - N/A   Clear
5:53 AM 64.0 °F - 60.1 °F 87% 29.99 in 10.0 mi Calm Calm - N/A   Clear
6:53 AM 64.0 °F - 61.0 °F 90% 29.99 in 10.0 mi Calm Calm - N/A   Clear
7:53 AM 64.0 °F - 61.0 °F 90% 30.01 in 10.0 mi Calm Calm - N/A   Scattered Clouds
8:02 AM 64.0 °F - 61.0 °F 90% 30.00 in 10.0 mi Calm Calm - N/A   Mostly Cloudy
8:19 AM 66.0 °F - 64.0 °F 93% 30.00 in 10.0 mi Calm Calm - N/A   Scattered Clouds
8:53 AM 72.0 °F - 68.0 °F 87% 30.01 in 10.0 mi East 4.6 mph - N/A   Mostly Cloudy
9:51 AM 77.0 °F - 68.0 °F 74% 30.01 in 10.0 mi East 11.5 mph - N/A   Scattered Clouds
9:53 AM 77.0 °F - 68.0 °F 74% 30.02 in 10.0 mi East 10.4 mph - N/A   Scattered Clouds
10:27 AM 77.0 °F - 68.0 °F 74% 30.02 in 10.0 mi East 11.5 mph - N/A   Mostly Cloudy
10:42 AM 79.0 °F - 69.1 °F 72% 30.02 in 10.0 mi East 10.4 mph - N/A   Scattered Clouds
10:53 AM 80.1 °F 82.9 °F 69.1 °F 69% 30.02 in 10.0 mi East 9.2 mph - N/A   Scattered Clouds
11:16 AM 80.1 °F 82.9 °F 69.1 °F 69% 30.02 in 10.0 mi East 11.5 mph - N/A   Mostly Cloudy
11:53 AM 81.0 °F 83.8 °F 68.0 °F 65% 30.03 in 10.0 mi ESE 10.4 mph - N/A   Partly Cloudy
12:53 PM 81.0 °F 84.1 °F 69.1 °F 67% 30.03 in 10.0 mi SE 9.2 mph - N/A   Mostly Cloudy
1:53 PM 82.0 °F 85.9 °F 70.0 °F 67% 30.01 in 10.0 mi ESE 8.1 mph - N/A   Mostly Cloudy
2:07 PM 81.0 °F 84.4 °F 70.0 °F 69% 29.99 in 10.0 mi SE 10.4 mph - N/A   Mostly Cloudy
2:26 PM 81.0 °F 84.9 °F 71.1 °F 72% 29.98 in 10.0 mi ESE 9.2 mph - N/A   Overcast
2:53 PM 81.0 °F 84.9 °F 71.1 °F 72% 29.98 in 10.0 mi SE 9.2 mph - N/A   Overcast
3:42 PM 80.1 °F 83.6 °F 71.1 °F 74% 29.97 in 10.0 mi SE 6.9 mph - N/A   Overcast
3:53 PM 80.1 °F 83.6 °F 71.1 °F 74% 29.98 in 10.0 mi ESE 5.8 mph - N/A   Overcast
4:06 PM 80.1 °F 83.6 °F 71.1 °F 74% 29.98 in 10.0 mi SE 6.9 mph - N/A   Overcast
4:53 PM 79.0 °F - 72.0 °F 79% 29.98 in 10.0 mi ESE 5.8 mph - N/A   Overcast
5:53 PM 78.1 °F - 73.0 °F 84% 29.97 in 9.0 mi East 6.9 mph - 0.00 in Rain Light Rain
6:03 PM 77.0 °F - 73.0 °F 88% 29.96 in 3.0 mi East 4.6 mph - 0.02 in Rain Rain
6:27 PM 77.0 °F - 73.0 °F 88% 29.96 in 10.0 mi ESE 6.9 mph - 0.04 in   Overcast
6:53 PM 77.0 °F - 73.0 °F 88% 29.97 in 10.0 mi SE 8.1 mph - 0.04 in   Overcast
7:03 PM 77.0 °F - 73.0 °F 88% 29.95 in 10.0 mi ESE 11.5 mph - N/A   Overcast
7:12 PM 77.0 °F - 73.0 °F 88% 29.95 in 10.0 mi ESE 10.4 mph - N/A   Overcast
7:31 PM 77.0 °F - 73.9 °F 90% 29.97 in 7.0 mi ESE 5.8 mph - 0.03 in Rain Rain
7:40 PM 77.0 °F - 73.0 °F 88% 29.97 in 2.5 mi ESE 9.2 mph - 0.14 in Rain Heavy Rain
7:46 PM 75.9 °F - 73.0 °F 91% 29.98 in 3.0 mi ESE 8.1 mph - 0.17 in Rain Rain
7:53 PM 75.9 °F - 73.0 °F 91% 29.99 in 4.0 mi ESE 6.9 mph - 0.21 in Rain Rain
8:01 PM 75.9 °F - 73.0 °F 91% 29.99 in 1.8 mi ESE 10.4 mph 17.3 mph 0.16 in Rain Heavy Rain
8:31 PM 75.9 °F - 73.0 °F 91% 29.96 in 3.0 mi NE 8.1 mph - 0.76 in Rain Light Rain
8:41 PM 75.9 °F - 73.0 °F 91% 29.96 in 5.0 mi NNE 6.9 mph - 0.78 in Rain Light Rain
8:53 PM 75.9 °F - 73.0 °F 91% 29.97 in 9.0 mi NNE 10.4 mph - 0.78 in Rain Light Rain
9:53 PM 75.9 °F - 73.0 °F 91% 29.97 in 7.0 mi Variable 3.5 mph - 0.03 in Rain Light Rain